Time,TemperatureF,DewpointF,PressureIn,WindDirection,WindDirectionDegrees,WindSpeedMPH,WindSpeedGustMPH,Humidity,HourlyPrecipIn,Conditions,Clouds,dailyrainin,SolarRadiationWatts/m^2,SoftwareType,DateUTC
2013-03-09 00:02:00,41.0,22.0,-100.00,ENE,75,6.0,12.0,46,0.00,,,0.00,0.000000,,2013-03-09 06:02:00,
2013-03-09 00:32:00,41.0,22.0,-100.00,ENE,64,8.0,13.0,47,0.00,,,0.00,0.000000,,2013-03-09 06:32:00,
2013-03-09 00:42:00,41.0,22.0,-100.00,ENE,64,8.0,13.0,47,0.00,,,0.00,0.000000,,2013-03-09 06:42:00,
2013-03-09 00:52:00,41.0,22.0,-100.00,ENE,64,8.0,13.0,47,0.00,,,0.00,0.000000,,2013-03-09 06:52:00,
2013-03-09 01:01:00,41.0,22.0,-100.00,ENE,64,8.0,13.0,47,0.00,,,0.00,0.000000,,2013-03-09 07:01:00,
2013-03-09 01:32:00,40.0,22.0,-100.00,ENE,73,6.0,14.0,49,0.00,,,0.00,0.000000,,2013-03-09 07:32:00,
2013-03-09 01:42:00,40.0,22.0,-100.00,ENE,73,6.0,14.0,49,0.00,,,0.00,0.000000,,2013-03-09 07:42:00,
2013-03-09 01:52:00,40.0,22.0,-100.00,ENE,73,6.0,14.0,49,0.00,,,0.00,0.000000,,2013-03-09 07:52:00,
2013-03-09 02:01:00,40.0,22.0,-100.00,ENE,73,6.0,14.0,49,0.00,,,0.00,0.000000,,2013-03-09 08:01:00,
2013-03-09 02:32:00,40.0,22.0,-100.00,ENE,72,7.0,13.0,48,0.00,,,0.00,0.000000,,2013-03-09 08:32:00,
2013-03-09 02:42:00,40.0,22.0,-100.00,ENE,72,7.0,13.0,48,0.00,,,0.00,0.000000,,2013-03-09 08:42:00,
2013-03-09 02:52:00,40.0,22.0,-100.00,ENE,72,7.0,13.0,48,0.00,,,0.00,0.000000,,2013-03-09 08:52:00,
2013-03-09 03:02:00,40.0,22.0,-100.00,ENE,72,7.0,13.0,48,0.00,,,0.00,0.000000,,2013-03-09 09:02:00,
2013-03-09 03:32:00,40.0,22.0,-100.00,East,87,5.0,12.0,49,0.00,,,0.00,0.000000,,2013-03-09 09:32:00,
2013-03-09 03:42:00,40.0,22.0,-100.00,East,87,5.0,12.0,49,0.00,,,0.00,0.000000,,2013-03-09 09:42:00,
2013-03-09 03:52:00,40.0,22.0,-100.00,East,87,5.0,12.0,49,0.00,,,0.00,0.000000,,2013-03-09 09:52:00,
2013-03-09 04:01:00,40.0,22.0,-100.00,East,87,5.0,12.0,49,0.00,,,0.00,0.000000,,2013-03-09 10:01:00,
2013-03-09 04:32:00,39.0,22.0,-100.00,East,85,6.0,10.0,51,0.00,,,0.00,0.000000,,2013-03-09 10:32:00,
2013-03-09 04:42:00,39.0,22.0,-100.00,East,85,6.0,10.0,51,0.00,,,0.00,0.000000,,2013-03-09 10:42:00,
2013-03-09 04:52:00,39.0,22.0,-100.00,East,85,6.0,10.0,51,0.00,,,0.00,0.000000,,2013-03-09 10:52:00,
2013-03-09 05:01:00,39.0,22.0,-100.00,East,85,6.0,10.0,51,0.00,,,0.00,0.000000,,2013-03-09 11:01:00,
2013-03-09 05:32:00,39.0,23.0,-100.00,ENE,63,3.0,8.0,52,0.00,,,0.00,0.000000,,2013-03-09 11:32:00,
2013-03-09 05:42:00,39.0,23.0,-100.00,ENE,63,3.0,8.0,52,0.00,,,0.00,0.000000,,2013-03-09 11:42:00,
2013-03-09 05:52:00,39.0,23.0,-100.00,ENE,63,3.0,8.0,52,0.00,,,0.00,0.000000,,2013-03-09 11:52:00,
2013-03-09 06:02:00,39.0,23.0,-100.00,ENE,63,3.0,8.0,52,0.00,,,0.00,0.000000,,2013-03-09 12:02:00,
2013-03-09 06:32:00,36.0,25.0,-100.00,ESE,121,6.0,10.0,63,0.00,,,0.00,1.000000,,2013-03-09 12:32:00,
2013-03-09 06:42:00,36.0,25.0,-100.00,ESE,121,6.0,10.0,63,0.00,,,0.00,1.000000,,2013-03-09 12:42:00,
2013-03-09 06:52:00,36.0,25.0,-100.00,ESE,121,6.0,10.0,63,0.00,,,0.00,1.000000,,2013-03-09 12:52:00,
2013-03-09 07:02:00,36.0,25.0,-100.00,ESE,121,6.0,10.0,63,0.00,,,0.00,1.000000,,2013-03-09 13:02:00,
2013-03-09 07:32:00,36.0,25.0,-100.00,SE,130,7.0,11.0,64,0.00,,,0.00,26.000000,,2013-03-09 13:32:00,
2013-03-09 07:42:00,36.0,25.0,-100.00,SE,130,7.0,11.0,64,0.00,,,0.00,26.000000,,2013-03-09 13:42:00,
2013-03-09 07:52:00,36.0,25.0,-100.00,SE,130,7.0,11.0,64,0.00,,,0.00,26.000000,,2013-03-09 13:52:00,
2013-03-09 08:01:00,36.0,25.0,-100.00,SE,130,7.0,11.0,64,0.00,,,0.00,26.000000,,2013-03-09 14:01:00,
2013-03-09 08:32:00,41.0,25.0,-100.00,SE,133,11.0,16.0,53,0.00,,,0.00,251.000000,,2013-03-09 14:32:00,
2013-03-09 08:42:00,41.0,25.0,-100.00,SE,133,11.0,16.0,53,0.00,,,0.00,251.000000,,2013-03-09 14:42:00,
2013-03-09 08:52:00,41.0,25.0,-100.00,SE,133,11.0,16.0,53,0.00,,,0.00,251.000000,,2013-03-09 14:52:00,
2013-03-09 09:02:00,41.0,25.0,-100.00,SE,133,11.0,16.0,53,0.00,,,0.00,251.000000,,2013-03-09 15:02:00,
2013-03-09 09:32:00,46.0,25.0,-100.00,SE,144,8.0,18.0,43,0.00,,,0.00,437.000000,,2013-03-09 15:32:00,
2013-03-09 09:42:00,46.0,25.0,-100.00,SE,144,8.0,18.0,43,0.00,,,0.00,437.000000,,2013-03-09 15:42:00,
2013-03-09 09:52:00,46.0,25.0,-100.00,SE,144,8.0,18.0,43,0.00,,,0.00,437.000000,,2013-03-09 15:52:00,
2013-03-09 10:01:00,46.0,25.0,-100.00,SE,144,8.0,18.0,43,0.00,,,0.00,437.000000,,2013-03-09 16:01:00,
2013-03-09 10:32:00,46.0,26.0,-100.00,SE,134,6.0,13.0,45,0.00,,,0.00,345.000000,,2013-03-09 16:32:00,
2013-03-09 10:42:00,46.0,26.0,-100.00,SE,134,6.0,13.0,45,0.00,,,0.00,345.000000,,2013-03-09 16:42:00,
2013-03-09 10:52:00,46.0,26.0,-100.00,SE,134,6.0,13.0,45,0.00,,,0.00,345.000000,,2013-03-09 16:52:00,
2013-03-09 11:01:00,46.0,26.0,-100.00,SE,134,6.0,13.0,45,0.00,,,0.00,345.000000,,2013-03-09 17:01:00,
2013-03-09 11:32:00,49.0,27.0,-100.00,ESE,123,9.0,15.0,42,0.00,,,0.00,384.000000,,2013-03-09 17:32:00,
2013-03-09 11:42:00,49.0,27.0,-100.00,ESE,123,9.0,15.0,42,0.00,,,0.00,384.000000,,2013-03-09 17:42:00,
2013-03-09 11:52:00,49.0,27.0,-100.00,ESE,123,9.0,15.0,42,0.00,,,0.00,384.000000,,2013-03-09 17:52:00,
2013-03-09 12:02:00,49.0,27.0,-100.00,ESE,123,9.0,15.0,42,0.00,,,0.00,384.000000,,2013-03-09 18:02:00,
2013-03-09 12:32:00,50.0,27.0,-100.00,SE,132,5.0,13.0,40,0.00,,,0.00,311.000000,,2013-03-09 18:32:00,
2013-03-09 12:42:00,50.0,27.0,-100.00,SE,132,5.0,13.0,40,0.00,,,0.00,311.000000,,2013-03-09 18:42:00,
2013-03-09 12:52:00,50.0,27.0,-100.00,SE,132,5.0,13.0,40,0.00,,,0.00,311.000000,,2013-03-09 18:52:00,
2013-03-09 13:02:00,50.0,27.0,-100.00,SE,132,5.0,13.0,40,0.00,,,0.00,311.000000,,2013-03-09 19:02:00,
2013-03-09 13:32:00,55.0,26.0,-100.00,SSE,166,6.0,11.0,33,0.00,,,0.00,450.000000,,2013-03-09 19:32:00,
2013-03-09 13:42:00,55.0,26.0,-100.00,SSE,166,6.0,11.0,33,0.00,,,0.00,450.000000,,2013-03-09 19:42:00,
2013-03-09 13:52:00,55.0,26.0,-100.00,SSE,166,6.0,11.0,33,0.00,,,0.00,450.000000,,2013-03-09 19:52:00,
2013-03-09 14:02:00,55.0,26.0,-100.00,SSE,166,6.0,11.0,33,0.00,,,0.00,450.000000,,2013-03-09 20:02:00,
2013-03-09 14:32:00,55.0,27.0,-100.00,SE,140,6.0,10.0,34,0.00,,,0.00,329.000000,,2013-03-09 20:32:00,
2013-03-09 14:42:00,55.0,27.0,-100.00,SE,140,6.0,10.0,34,0.00,,,0.00,329.000000,,2013-03-09 20:42:00,
2013-03-09 14:52:00,55.0,27.0,-100.00,SE,140,6.0,10.0,34,0.00,,,0.00,329.000000,,2013-03-09 20:52:00,
2013-03-09 15:02:00,55.0,27.0,-100.00,SE,140,6.0,10.0,34,0.00,,,0.00,329.000000,,2013-03-09 21:02:00,
2013-03-09 15:32:00,55.0,28.0,-100.00,SE,130,7.0,11.0,35,0.00,,,0.00,210.000000,,2013-03-09 21:32:00,
2013-03-09 15:42:00,55.0,28.0,-100.00,SE,130,7.0,11.0,35,0.00,,,0.00,210.000000,,2013-03-09 21:42:00,
2013-03-09 15:52:00,55.0,28.0,-100.00,SE,130,7.0,11.0,35,0.00,,,0.00,210.000000,,2013-03-09 21:52:00,
2013-03-09 16:01:00,55.0,28.0,-100.00,SE,130,7.0,11.0,35,0.00,,,0.00,210.000000,,2013-03-09 22:01:00,
2013-03-09 16:32:00,54.0,28.0,-100.00,SE,128,8.0,15.0,36,0.00,,,0.00,128.000000,,2013-03-09 22:32:00,
2013-03-09 16:42:00,54.0,28.0,-100.00,SE,128,8.0,15.0,36,0.00,,,0.00,128.000000,,2013-03-09 22:42:00,
2013-03-09 16:52:00,54.0,28.0,-100.00,SE,128,8.0,15.0,36,0.00,,,0.00,128.000000,,2013-03-09 22:52:00,
2013-03-09 17:01:00,54.0,28.0,-100.00,SE,128,8.0,15.0,36,0.00,,,0.00,128.000000,,2013-03-09 23:01:00,
2013-03-09 17:32:00,54.0,28.0,-100.00,SE,144,10.0,15.0,36,0.00,,,0.00,133.000000,,2013-03-09 23:32:00,
2013-03-09 17:42:00,54.0,28.0,-100.00,SE,144,10.0,15.0,36,0.00,,,0.00,133.000000,,2013-03-09 23:42:00,
2013-03-09 17:52:00,54.0,28.0,-100.00,SE,144,10.0,15.0,36,0.00,,,0.00,133.000000,,2013-03-09 23:52:00,
2013-03-09 18:02:00,54.0,28.0,-100.00,SE,144,10.0,15.0,36,0.00,,,0.00,133.000000,,2013-03-10 00:02:00,
2013-03-09 18:32:00,52.0,27.0,-100.00,SE,143,10.0,17.0,38,0.00,,,0.00,21.000000,,2013-03-10 00:32:00,
2013-03-09 18:43:00,52.0,27.0,-100.00,SE,143,10.0,17.0,38,0.00,,,0.00,21.000000,,2013-03-10 00:43:00,
2013-03-09 18:52:00,52.0,27.0,-100.00,SE,143,10.0,17.0,38,0.00,,,0.00,21.000000,,2013-03-10 00:52:00,
2013-03-09 19:01:00,52.0,27.0,-100.00,SE,143,10.0,17.0,38,0.00,,,0.00,21.000000,,2013-03-10 01:01:00,
2013-03-09 19:32:00,51.0,27.0,-100.00,SE,146,8.0,17.0,39,0.00,,,-99.99,0.000000,,2013-03-10 01:32:00,
2013-03-09 19:42:00,51.0,27.0,-100.00,SE,146,8.0,17.0,39,0.00,,,-99.99,0.000000,,2013-03-10 01:42:00,
2013-03-09 19:52:00,51.0,27.0,-100.00,SE,146,8.0,17.0,39,0.00,,,-99.99,0.000000,,2013-03-10 01:52:00,
2013-03-09 20:01:00,51.0,27.0,-100.00,SE,146,8.0,17.0,39,0.00,,,-99.99,0.000000,,2013-03-10 02:01:00,
2013-03-09 20:32:00,50.0,27.0,-100.00,SE,137,8.0,13.0,41,0.00,,,-99.99,0.000000,,2013-03-10 02:32:00,
2013-03-09 20:42:00,50.0,27.0,-100.00,SE,137,8.0,13.0,41,0.00,,,-99.99,0.000000,,2013-03-10 02:42:00,
2013-03-09 20:52:00,50.0,27.0,-100.00,SE,137,8.0,13.0,41,0.00,,,-99.99,0.000000,,2013-03-10 02:52:00,
2013-03-09 21:02:00,50.0,27.0,-100.00,SE,137,8.0,13.0,41,0.00,,,-99.99,0.000000,,2013-03-10 03:02:00,
2013-03-09 21:32:00,52.0,27.0,-100.00,SSE,155,9.0,15.0,38,0.00,,,0.00,0.000000,,2013-03-10 03:32:00,
2013-03-09 21:42:00,52.0,27.0,-100.00,SSE,155,9.0,15.0,38,0.00,,,0.00,0.000000,,2013-03-10 03:42:00,
2013-03-09 21:52:00,52.0,27.0,-100.00,SSE,155,9.0,15.0,38,0.00,,,0.00,0.000000,,2013-03-10 03:52:00,
2013-03-09 22:01:00,52.0,27.0,-100.00,SSE,155,9.0,15.0,38,0.00,,,0.00,0.000000,,2013-03-10 04:01:00,
2013-03-09 22:32:00,52.0,27.0,-100.00,SSE,148,12.0,20.0,38,0.00,,,0.00,0.000000,,2013-03-10 04:32:00,
2013-03-09 22:42:00,52.0,27.0,-100.00,SSE,148,12.0,20.0,38,0.00,,,0.00,0.000000,,2013-03-10 04:42:00,
2013-03-09 22:52:00,52.0,27.0,-100.00,SSE,148,12.0,20.0,38,0.00,,,0.00,0.000000,,2013-03-10 04:52:00,
2013-03-09 23:02:00,52.0,27.0,-100.00,SSE,148,12.0,20.0,38,0.00,,,0.00,0.000000,,2013-03-10 05:02:00,
2013-03-09 23:32:00,52.0,28.0,-100.00,SSE,152,11.0,22.0,39,0.00,,,0.00,0.000000,,2013-03-10 05:32:00,
2013-03-09 23:42:00,52.0,28.0,-100.00,SSE,152,11.0,22.0,39,0.00,,,0.00,0.000000,,2013-03-10 05:42:00,
2013-03-09 23:52:00,52.0,28.0,-100.00,SSE,152,11.0,22.0,39,0.00,,,0.00,0.000000,,2013-03-10 05:52:00,